Weather History for KPMP - January, 2013

Change the Weather History Date:

Saturday, January 19, 2013

  Actual Average (KFLL) Record (KFLL)
Temperature  
Mean Temperature 66 °F 69 °F  
Max Temperature 71 °F 76 °F 87 °F (1936)
Min Temperature 62 °F 62 °F 28 °F (1977)
Degree Days  
Heating Degree Days 0 1  
Month to date heating degree days 35  
Since 1 July heating degree days 67  
Cooling Degree Days 2 5  
Month to date cooling degree days 104  
Year to date cooling degree days 104  
Growing Degree Days 16 (Base 50)    
Moisture  
Dew Point 66 °F    
Average Humidity 95    
Maximum Humidity 100    
Minimum Humidity 63    
Precipitation  
Precipitation 0.45 in 0.12 in 2.90 in (1942)
Month to date precipitation 1.61  
Year to date precipitation 1.61  
Snow  
Snow 0.00 in - - ()
Month to date snowfall  
Since 1 July snowfall  
Snow Depth -    
Sea Level Pressure  
Sea Level Pressure 30.15 in    
Wind  
Wind Speed 6 mph (NNW)    
Max Wind Speed 13 mph    
Max Gust Speed -    
Visibility 6 miles    
Events Fog , Rain    
T = Trace of Precipitation, MM = Missing Value Source: NWS Daily Summary

Daily Weather History Graph

Daily Weather History Graph

Search for Another Location

Airport or City:

Trip Planner

Search our weather history database for the weather conditions in past years. The results will help you decide how hot, cold, wet, or windy it might be!

Date:

Astronomy

Jan. 19, 2013 Rise Set
Actual Time 7:09 AM EST 5:53 PM EST
Civil Twilight 6:44 AM EST 6:18 PM EST
Nautical Twilight 6:16 AM EST 6:46 PM EST
Astronomical Twilight 5:48 AM EST 7:14 PM EST
Moon 12:12 PM EST (1/19) 12:50 AM EST (1/19)
Length of Visible Light 11h 33m
Length of Day
10h 44m
First Quarter, 57% of the Moon is Illuminated
Jan 19
First Quarter
Jan 26
Full
Feb 3
Last Quarter
Feb 10
New
Feb 17
First Quarter

Hourly Weather History & Observations

Time (EST) Temp. Dew Point Humidity Pressure Visibility Wind Dir Wind Speed Gust Speed Precip Events Conditions
12:53 AM 70.0 °F 57.0 °F 63% 30.18 in 10.0 mi East 9.2 mph - N/A   Overcast
1:53 AM 70.0 °F 57.9 °F 65% 30.16 in 10.0 mi ENE 9.2 mph - N/A   Overcast
2:53 AM 71.1 °F 57.9 °F 63% 30.15 in 10.0 mi ENE 8.1 mph - N/A   Overcast
3:53 AM 71.1 °F 57.9 °F 63% 30.14 in 10.0 mi East 6.9 mph - N/A   Overcast
4:53 AM 71.1 °F 60.1 °F 68% 30.14 in 10.0 mi East 5.8 mph - 0.00 in   Overcast
5:53 AM 71.1 °F 62.1 °F 73% 30.14 in 10.0 mi ENE 5.8 mph - 0.00 in   Overcast
6:53 AM 68.0 °F 62.1 °F 81% 30.17 in 10.0 mi SW 4.6 mph - 0.01 in   Overcast
7:24 AM 64.4 °F 64.4 °F 100% 30.17 in 5.0 mi West 9.2 mph - 0.03 in Rain Rain
7:53 AM 64.0 °F 63.0 °F 96% 30.18 in 10.0 mi West 6.9 mph - 0.04 in Rain Light Rain
8:40 AM 62.6 °F 62.6 °F 100% 30.20 in 2.5 mi West 9.2 mph - 0.07 in Rain Heavy Rain
8:53 AM 63.0 °F 63.0 °F 100% 30.21 in 2.5 mi West 10.4 mph - 0.12 in Rain Light Rain
9:22 AM 62.6 °F 62.6 °F 100% 30.22 in 2.5 mi West 4.6 mph - 0.03 in Rain Rain
9:35 AM 62.6 °F 62.6 °F 100% 30.22 in 2.5 mi West 6.9 mph - 0.04 in Rain Light Rain
9:53 AM 63.0 °F 63.0 °F 100% 30.23 in 2.5 mi West 6.9 mph - 0.06 in Rain Light Rain
10:43 AM 64.4 °F 64.4 °F 100% 30.22 in 2.5 mi West 5.8 mph - 0.08 in Rain Light Rain
10:53 AM 64.9 °F 64.9 °F 100% 30.22 in 2.5 mi WNW 4.6 mph - 0.10 in Rain Light Rain
11:23 AM 66.2 °F 66.2 °F 100% 30.21 in 2.5 mi NNW 6.9 mph - 0.03 in Rain Light Rain
11:51 AM 66.2 °F 66.2 °F 100% 30.20 in 2.5 mi North 4.6 mph - 0.03 in Rain Light Rain
11:53 AM 66.9 °F 66.9 °F 100% 30.20 in 2.5 mi NNW 5.8 mph - 0.04 in Rain Light Rain
12:12 PM 68.0 °F 68.0 °F 100% 30.19 in 6.0 mi NNW 4.6 mph - 0.00 in Rain Light Rain
12:20 PM 68.0 °F 66.2 °F 94% 30.18 in 9.0 mi NW 4.6 mph - 0.00 in   Overcast
12:29 PM 68.0 °F 68.0 °F 100% 30.18 in 9.0 mi WNW 4.6 mph - 0.00 in   Overcast
12:53 PM 68.0 °F 66.9 °F 96% 30.17 in 6.0 mi Calm Calm - 0.00 in   Overcast
1:08 PM 68.0 °F 68.0 °F 100% 30.16 in 2.0 mi Calm Calm - 0.00 in Rain Light Rain
1:14 PM 68.0 °F 68.0 °F 100% 30.15 in 1.5 mi Calm Calm - 0.01 in Rain Light Rain
1:30 PM 68.0 °F 68.0 °F 100% 30.15 in 1.8 mi North 3.5 mph - 0.04 in Rain Light Rain
1:37 PM 68.0 °F 68.0 °F 100% 30.14 in 2.5 mi NNW 3.5 mph - 0.04 in Rain Light Rain
1:48 PM 68.0 °F 68.0 °F 100% 30.14 in 5.0 mi Calm Calm - 0.04 in Rain Light Rain
1:53 PM 69.1 °F 68.0 °F 96% 30.14 in 7.0 mi North 3.5 mph - 0.04 in Rain Light Rain
2:08 PM 69.8 °F 68.0 °F 94% 30.12 in 3.0 mi NE 8.1 mph - 0.00 in Rain Light Rain
2:53 PM 69.1 °F 69.1 °F 100% 30.12 in 7.0 mi ENE 12.7 mph - 0.01 in   Overcast
3:53 PM 69.1 °F 69.1 °F 100% 30.11 in 10.0 mi NNE 11.5 mph - 0.00 in Rain Light Rain
4:53 PM 70.0 °F 69.1 °F 97% 30.11 in 10.0 mi NE 10.4 mph - 0.00 in   Overcast
5:49 PM 69.8 °F 68.0 °F 94% 30.11 in 10.0 mi NW 3.5 mph - N/A   Overcast
5:53 PM 69.1 °F 68.0 °F 96% 30.12 in 10.0 mi NW 3.5 mph - N/A   Overcast
6:29 PM 69.8 °F 69.8 °F 100% 30.12 in 10.0 mi NW 4.6 mph - 0.00 in Rain Light Rain
6:41 PM 69.8 °F 69.8 °F 100% 30.12 in 10.0 mi North 5.8 mph - 0.00 in Rain Light Rain
6:50 PM 69.8 °F 69.8 °F 100% 30.12 in 5.0 mi North 5.8 mph - 0.02 in Rain Heavy Rain
6:53 PM 70.0 °F 69.1 °F 97% 30.13 in 4.0 mi North 4.6 mph - 0.03 in Rain Rain
7:09 PM 69.8 °F 69.8 °F 100% 30.13 in 10.0 mi NNW 4.6 mph - 0.00 in Rain Light Rain
7:48 PM 69.8 °F 69.8 °F 100% 30.13 in 10.0 mi North 4.6 mph - 0.00 in   Overcast
7:53 PM 70.0 °F 70.0 °F 100% 30.14 in 10.0 mi North 3.5 mph - 0.00 in   Overcast
7:58 PM 69.8 °F 69.8 °F 100% 30.13 in 10.0 mi North 3.5 mph - N/A   Overcast
8:17 PM 69.8 °F 69.8 °F 100% 30.13 in 10.0 mi North 4.6 mph - N/A   Overcast
8:24 PM 69.8 °F 69.8 °F 100% 30.13 in 10.0 mi North 4.6 mph - N/A   Overcast
8:32 PM 69.8 °F 69.8 °F 100% 30.13 in 10.0 mi North 3.5 mph - N/A   Mostly Cloudy
8:53 PM 69.1 °F 68.0 °F 96% 30.14 in 10.0 mi NNW 3.5 mph - N/A   Mostly Cloudy
9:15 PM 69.8 °F 68.0 °F 94% 30.14 in 10.0 mi NW 4.6 mph - N/A   Overcast
9:44 PM 68.0 °F 68.0 °F 100% 30.13 in 10.0 mi NNW 3.5 mph - N/A   Partly Cloudy
9:53 PM 68.0 °F 66.9 °F 96% 30.14 in 10.0 mi NNW 4.6 mph - N/A   Partly Cloudy
10:43 PM 68.0 °F 66.2 °F 94% 30.12 in 6.0 mi NW 6.9 mph - N/A   Scattered Clouds
10:53 PM 68.0 °F 68.0 °F 100% 30.12 in 5.0 mi NNW 5.8 mph - N/A   Mostly Cloudy
11:07 PM 66.2 °F 66.2 °F 100% 30.12 in 1.8 mi NW 5.8 mph - N/A   Overcast
11:21 PM 66.2 °F 66.2 °F 100% 30.12 in 0.5 mi NW 4.6 mph - N/A Fog Fog
11:30 PM 66.2 °F 66.2 °F 100% 30.12 in 1.0 mi NNW 4.6 mph - N/A   Mist
11:40 PM 66.2 °F 66.2 °F 100% 30.11 in 3.0 mi NNW 3.5 mph - N/A   Scattered Clouds
11:53 PM 66.9 °F 66.0 °F 97% 30.12 in 4.0 mi NW 3.5 mph - N/A   Partly Cloudy